Weather History for Kalispell, MT

Change the Weather History Date:

Friday, December 21, 2012

  Actual Average Record
Temperature  
Mean Temperature 33 °F 22 °F  
Max Temperature 36 °F 29 °F 54 °F (1933)
Min Temperature 30 °F 14 °F -25 °F (1990)
Degree Days  
Heating Degree Days 32 43  
Month to date heating degree days 726 874  
Since 1 July heating degree days 2706 3078  
Cooling Degree Days 0 0  
Month to date cooling degree days 0 0  
Year to date cooling degree days 192 147  
Moisture  
Dew Point 32 °F    
Average Humidity 87    
Maximum Humidity 96    
Minimum Humidity 78    
Precipitation  
Precipitation 0.05 in 0.05 in 0.88 in (1972)
Month to date precipitation 1.03 1.03  
Year to date precipitation 20.17 16.46  
Snow  
Snow T in - - ()
Month to date snowfall 4.1  
Year to date snowfall 31.5  
Since 1 July snowfall 6.4  
Snow Depth 1.00 in    
Sea Level Pressure  
Sea Level Pressure 29.92 in    
Wind  
Wind Speed 1 mph (NNE)    
Max Wind Speed 12 mph    
Max Gust Speed 15 mph    
Visibility 9 miles    
Events Rain , Snow    
T = Trace of Precipitation, MM = Missing Value Source: NWS Daily Summary

Daily Weather History Graph

Daily Weather History Graph

Search for Another Location

Airport:

Trip Planner

Search our weather history database for the weather conditions in past years. The results will help you decide how hot, cold, wet, or windy it might be!

Date:

Astronomy

Dec. 21, 2012 Rise Set
Actual Time 8:25 AM MST 4:45 PM MST
Civil Twilight 7:48 AM MST 5:22 PM MST
Nautical Twilight 7:08 AM MST 6:02 PM MST
Astronomical Twilight 6:30 AM MST 6:40 PM MST
Moon 12:52 PM MST (12/21) 1:56 AM MST (12/21)
Length of Visible Light 9h 33m
Length of Day
8h 19m
Waxing Gibbous, 65% of the Moon is Illuminated
Dec 21
Waxing Gibbous
Dec 28
Full
Jan 4
Last Quarter
Jan 11
New
Jan 18
First Quarter

Hourly Weather History & Observations

Time (MST) Temp. Windchill Dew Point Humidity Pressure Visibility Wind Dir Wind Speed Gust Speed Precip Events Conditions
12:55 AM 32.0 °F - 27.0 °F 82% 29.90 in 10.0 mi Calm Calm - N/A   Overcast
1:55 AM 32.0 °F - 27.0 °F 82% 29.90 in 10.0 mi Calm Calm - N/A   Overcast
2:55 AM 32.0 °F - 28.0 °F 85% 29.90 in 10.0 mi Calm Calm - N/A   Overcast
3:55 AM 30.9 °F - 28.0 °F 89% 29.91 in 10.0 mi Calm Calm - N/A   Overcast
4:55 AM 33.1 °F 27.7 °F 28.9 °F 85% 29.92 in 10.0 mi NNE 5.8 mph - N/A   Overcast
5:55 AM 34.0 °F 28.0 °F 30.9 °F 89% 29.94 in 10.0 mi NNE 6.9 mph - 0.00 in   Overcast
6:55 AM 33.1 °F 27.7 °F 32.0 °F 96% 29.94 in 10.0 mi NNE 5.8 mph - 0.00 in   Overcast
7:55 AM 32.0 °F - 30.9 °F 96% 29.96 in 10.0 mi Calm Calm - N/A   Overcast
8:46 AM 32.0 °F - 30.2 °F 93% 29.89 in 9.0 mi Calm Calm - 0.00 in Snow Light Snow
8:55 AM 32.0 °F - 30.9 °F 96% 29.97 in 10.0 mi Calm Calm - 0.00 in Snow Light Snow
9:30 AM 32.0 °F - 30.2 °F 93% 29.90 in 9.0 mi Calm Calm - 0.00 in Snow Light Snow
9:55 AM 33.1 °F - 30.9 °F 92% 29.98 in 10.0 mi Calm Calm - 0.00 in   Overcast
10:55 AM 35.1 °F - 33.1 °F 92% 29.99 in 10.0 mi Calm Calm - 0.00 in   Overcast
11:55 AM 36.0 °F - 33.1 °F 89% 29.98 in 10.0 mi Calm Calm - N/A   Overcast
11:58 AM 35.6 °F - 33.8 °F 93% 29.91 in 10.0 mi Calm Calm - N/A   Overcast
12:55 PM 35.1 °F - 33.1 °F 92% 29.96 in 8.0 mi Calm Calm - 0.00 in Rain Light Rain
1:55 PM 36.0 °F 33.3 °F 33.1 °F 89% 29.96 in 10.0 mi North 3.5 mph - 0.00 in Rain Light Rain
2:55 PM 35.1 °F 32.2 °F 34.0 °F 96% 29.95 in 6.0 mi NNE 3.5 mph - 0.00 in Rain Light Rain
3:04 PM 35.6 °F - 33.8 °F 93% 29.88 in 7.0 mi Calm Calm - 0.01 in Rain Light Rain
3:14 PM 35.6 °F 32.8 °F 33.8 °F 93% 29.88 in 7.0 mi NNE 3.5 mph - 0.01 in Rain Light Rain
3:25 PM 35.6 °F - 33.8 °F 93% 29.88 in 7.0 mi Calm Calm - 0.01 in Rain Light Rain
3:55 PM 35.1 °F - 33.1 °F 92% 29.95 in 6.0 mi Calm Calm - 0.02 in Rain Light Rain
4:02 PM 33.8 °F - 33.8 °F 100% 29.88 in 7.0 mi Calm Calm - 0.00 in Rain Light Rain
4:28 PM 33.8 °F 29.6 °F 32.0 °F 93% 29.88 in 8.0 mi Variable 4.6 mph - 0.00 in   Overcast
4:55 PM 35.1 °F - 34.0 °F 96% 29.94 in 10.0 mi Calm Calm - 0.00 in   Overcast
5:55 PM 33.1 °F - 32.0 °F 96% 29.94 in 10.0 mi Calm Calm - N/A   Overcast
6:55 PM 33.1 °F 28.7 °F 33.1 °F 100% 29.94 in 10.0 mi North 4.6 mph - 0.00 in Rain Light Rain
7:55 PM 33.1 °F - 33.1 °F 100% 29.92 in 10.0 mi Calm Calm - 0.01 in   Overcast
8:55 PM 33.1 °F - 33.1 °F 100% 29.92 in 10.0 mi Calm Calm - 0.00 in Rain Light Rain
9:55 PM 33.1 °F - 33.1 °F 100% 29.92 in 10.0 mi Calm Calm - 0.01 in Rain Light Rain
10:55 PM 33.1 °F - 32.0 °F 96% 29.91 in 10.0 mi Calm Calm - 0.01 in Rain Light Rain
11:52 PM 33.8 °F 29.6 °F 33.8 °F 100% 29.84 in 9.0 mi SW 4.6 mph - 0.00 in Rain Light Rain
11:55 PM 33.1 °F 28.7 °F 33.1 °F 100% 29.90 in 9.0 mi SSW 4.6 mph - 0.00 in Rain Light Rain